CSN375 ZSPD-EDDF

Flight info

Callsign CSN375
Flight time N/A
Altitude 32100
Route PIK81D PIKAS G330 PIMOL A593 DALIM W157 VYK G212 SOTMU B339 POLHO Y345 UDA R372 AMUTA/K0909F340 R372 ADONI B800 KUMOD N869 AGMUS/K0896F360 N869 UNISO L870 RANVA/N0483F360 L870 RESMO DCT TODNA DCT DEREX P739 KOLJA N746 GORPI/N0479F380 Z80 TILAV L87 KETAP DCT PENEK DCT POVEL DCT RIMET T157 KERAX KERAX4B
Aircraft B77W/H-SDE2E3FGHIJ1J2J4J5LM1OP2RVWXYZ/LB1D1

Departure

Time 2026-05-04 19:10
Airport Shanghai Pudong International Airport (ZSPD)

Arrival

Time N/A
Airport Frankfurt Main Airport (EDDF)
Time Latitude Longitude Altitude Speed Heading
2026-05-04 18:21 31.13608 121.80961 28 ft 0 kts 342°
2026-05-04 18:27 31.13614 121.80958 28 ft 0 kts 342°
2026-05-04 18:54 31.13606 121.80961 27 ft 3 kts 342°
2026-05-04 18:54 31.13585 121.80969 26 ft 3 kts 342°
2026-05-04 18:54 31.13563 121.80978 26 ft 3 kts 342°
2026-05-04 18:54 31.13545 121.80984 27 ft 3 kts 354°
2026-05-04 18:55 31.13531 121.80984 27 ft 3 kts 31°
2026-05-04 18:55 31.13517 121.80951 25 ft 3 kts 76°
2026-05-04 18:55 31.13514 121.80938 23 ft 0 kts 72°
2026-05-04 18:58 31.13524 121.80974 26 ft 10 kts 72°
2026-05-04 18:58 31.13549 121.81063 27 ft 9 kts 75°
2026-05-04 18:58 31.13526 121.81113 27 ft 7 kts 139°
2026-05-04 18:58 31.13480 121.81138 27 ft 8 kts 159°
2026-05-04 18:59 31.13410 121.81166 27 ft 13 kts 162°
2026-05-04 18:59 31.13324 121.81199 27 ft 13 kts 162°
2026-05-04 18:59 31.13238 121.81231 27 ft 13 kts 162°
2026-05-04 18:59 31.13152 121.81264 27 ft 12 kts 162°
2026-05-04 19:00 31.13092 121.81248 27 ft 10 kts 232°
2026-05-04 19:00 31.13055 121.81133 27 ft 22 kts 252°
2026-05-04 19:00 31.13007 121.80959 27 ft 23 kts 252°
2026-05-04 19:00 31.12959 121.80787 27 ft 23 kts 252°
2026-05-04 19:01 31.12911 121.80613 27 ft 23 kts 252°
2026-05-04 19:01 31.12863 121.80441 27 ft 20 kts 252°
2026-05-04 19:01 31.12823 121.80297 27 ft 18 kts 252°
2026-05-04 19:01 31.12785 121.80159 28 ft 15 kts 252°
2026-05-04 19:02 31.12793 121.80085 28 ft 9 kts 317°
2026-05-04 19:02 31.12848 121.80055 27 ft 9 kts 340°
2026-05-04 19:02 31.12951 121.80016 27 ft 24 kts 342°
2026-05-04 19:02 31.13162 121.79936 27 ft 37 kts 342°
2026-05-04 19:03 31.13376 121.79855 27 ft 29 kts 342°
2026-05-04 19:03 31.13566 121.79783 27 ft 29 kts 342°
2026-05-04 19:03 31.13757 121.79711 27 ft 29 kts 342°
2026-05-04 19:03 31.13948 121.79639 27 ft 29 kts 342°
2026-05-04 19:04 31.14140 121.79567 27 ft 29 kts 342°
2026-05-04 19:04 31.14330 121.79495 27 ft 29 kts 342°
2026-05-04 19:04 31.14520 121.79423 27 ft 29 kts 342°
2026-05-04 19:04 31.14710 121.79352 28 ft 29 kts 342°
2026-05-04 19:05 31.14901 121.79280 28 ft 29 kts 342°
2026-05-04 19:05 31.15091 121.79208 28 ft 29 kts 342°
2026-05-04 19:05 31.15282 121.79136 27 ft 29 kts 342°
2026-05-04 19:05 31.15473 121.79064 27 ft 29 kts 342°
2026-05-04 19:06 31.15664 121.78992 27 ft 29 kts 342°
2026-05-04 19:06 31.15848 121.78922 27 ft 24 kts 342°
2026-05-04 19:06 31.15984 121.78871 28 ft 20 kts 342°
2026-05-04 19:06 31.16094 121.78829 28 ft 12 kts 342°
2026-05-04 19:07 31.16141 121.78790 28 ft 7 kts 296°
2026-05-04 19:07 31.16142 121.78741 28 ft 6 kts 262°
2026-05-04 19:07 31.16128 121.78684 28 ft 7 kts 251°
2026-05-04 19:07 31.16106 121.78635 27 ft 6 kts 221°
2026-05-04 19:08 31.16068 121.78624 29 ft 5 kts 183°
2026-05-04 19:08 31.16036 121.78632 27 ft 2 kts 161°
2026-05-04 19:08 31.16035 121.78632 27 ft 0 kts 161°
2026-05-04 19:09 31.15976 121.78655 26 ft 24 kts 162°
2026-05-04 19:09 31.15600 121.78797 26 ft 91 kts 162°
2026-05-04 19:10 31.14787 121.79105 30 ft 152 kts 162°
2026-05-04 19:10 31.13618 121.79544 47 ft 196 kts 162°
2026-05-04 19:10 31.12345 121.80007 635 ft 189 kts 163°
2026-05-04 19:10 31.11081 121.80470 1207 ft 187 kts 163°
2026-05-04 19:11 31.09837 121.80911 1701 ft 192 kts 164°
2026-05-04 19:11 31.08547 121.81378 2048 ft 197 kts 164°
2026-05-04 19:11 31.07229 121.81862 2413 ft 199 kts 163°
2026-05-04 19:11 31.05911 121.82348 2829 ft 200 kts 163°
2026-05-04 19:12 31.04574 121.82843 3169 ft 204 kts 163°
2026-05-04 19:12 31.01593 121.83399 3446 ft 234 kts 188°
2026-05-04 19:12 31.00026 121.82793 3715 ft 243 kts 213°
2026-05-04 19:13 30.98805 121.81438 4059 ft 252 kts 239°
2026-05-04 19:13 30.98165 121.79531 4422 ft 256 kts 254°
2026-05-04 19:13 30.97649 121.77518 4889 ft 262 kts 253°
2026-05-04 19:13 30.97101 121.75480 5375 ft 266 kts 253°
2026-05-04 19:14 30.96539 121.73414 5926 ft 269 kts 253°
2026-05-04 19:14 30.96236 121.71271 6314 ft 271 kts 278°
2026-05-04 19:14 30.96612 121.69122 6715 ft 273 kts 284°
2026-05-04 19:14 30.97032 121.66960 7282 ft 273 kts 283°
2026-05-04 19:15 30.97435 121.64826 7841 ft 275 kts 283°
2026-05-04 19:15 30.97846 121.62637 8371 ft 277 kts 283°
2026-05-04 19:15 30.98258 121.60432 8895 ft 280 kts 283°
2026-05-04 19:15 30.98671 121.58208 9429 ft 282 kts 283°
2026-05-04 19:16 30.99086 121.55963 9966 ft 284 kts 283°
2026-05-04 19:16 30.99507 121.53682 10310 ft 294 kts 282°
2026-05-04 19:16 30.99949 121.51277 10429 ft 312 kts 282°
2026-05-04 19:16 31.00416 121.48736 10580 ft 330 kts 282°
2026-05-04 19:17 31.00910 121.46043 10726 ft 349 kts 282°
2026-05-04 19:17 31.01431 121.43215 10995 ft 363 kts 282°
2026-05-04 19:17 31.01958 121.40347 11475 ft 371 kts 282°
2026-05-04 19:17 31.02502 121.37386 12134 ft 375 kts 282°
2026-05-04 19:18 31.03049 121.34403 12931 ft 377 kts 282°
2026-05-04 19:18 31.03576 121.31528 13707 ft 379 kts 282°
2026-05-04 19:18 31.04128 121.28508 14397 ft 382 kts 282°
2026-05-04 19:18 31.04684 121.25468 15088 ft 385 kts 281°
2026-05-04 19:19 31.05242 121.22408 15782 ft 387 kts 281°
2026-05-04 19:19 31.05822 121.19343 16450 ft 386 kts 285°
2026-05-04 19:19 31.06942 121.16519 16859 ft 396 kts 305°
2026-05-04 19:19 31.08905 121.14236 17480 ft 404 kts 323°
2026-05-04 19:20 31.11392 121.12678 18202 ft 409 kts 337°
2026-05-04 19:20 31.14192 121.11982 18724 ft 416 kts 353°
2026-05-04 19:20 31.17110 121.11870 19098 ft 424 kts 355°
2026-05-04 19:20 31.20081 121.11798 19589 ft 429 kts 355°
2026-05-04 19:21 31.23069 121.11687 20177 ft 430 kts 354°
2026-05-04 19:21 31.26025 121.11535 20746 ft 432 kts 353°
2026-05-04 19:21 31.29040 121.11360 21276 ft 436 kts 353°
2026-05-04 19:21 31.32083 121.11179 21773 ft 440 kts 353°
2026-05-04 19:22 31.35152 121.11001 22270 ft 444 kts 354°
2026-05-04 19:22 31.38260 121.11036 22768 ft 450 kts 359°
2026-05-04 19:22 31.41398 121.11310 23288 ft 454 kts
2026-05-04 19:22 31.44540 121.11472 23671 ft 451 kts 351°
2026-05-04 19:23 31.47556 121.10611 23926 ft 444 kts 331°
2026-05-04 19:23 31.50314 121.09025 24277 ft 444 kts 329°
2026-05-04 19:23 31.53069 121.07459 24673 ft 447 kts 330°
2026-05-04 19:23 31.55892 121.05902 25127 ft 449 kts 330°
2026-05-04 19:24 31.58738 121.04365 25577 ft 451 kts 330°
2026-05-04 19:24 31.61597 121.02839 25998 ft 453 kts 330°
2026-05-04 19:24 31.64479 121.01306 26369 ft 456 kts 330°
2026-05-04 19:24 31.67376 120.99766 26749 ft 458 kts 330°
2026-05-04 19:25 31.70289 120.98217 27151 ft 460 kts 330°
2026-05-04 19:25 31.73211 120.96660 27529 ft 462 kts 330°
2026-05-04 19:25 31.76111 120.95112 27899 ft 465 kts 330°
2026-05-04 19:25 31.79059 120.93537 28255 ft 467 kts 329°
2026-05-04 19:26 31.82018 120.91955 28603 ft 469 kts 329°
2026-05-04 19:26 31.84995 120.90361 28915 ft 471 kts 329°
2026-05-04 19:26 31.87984 120.88761 29225 ft 473 kts 329°
2026-05-04 19:26 31.90980 120.87156 29517 ft 474 kts 329°
2026-05-04 19:27 31.93988 120.85543 29821 ft 476 kts 329°
2026-05-04 19:27 31.97002 120.83926 30182 ft 475 kts 329°
2026-05-04 19:27 31.99962 120.82334 30506 ft 474 kts 329°
2026-05-04 19:27 32.02962 120.80717 30814 ft 474 kts 329°
2026-05-04 19:28 32.05960 120.79101 31097 ft 474 kts 329°
2026-05-04 19:28 32.08959 120.77483 31382 ft 474 kts 329°
2026-05-04 19:28 32.11894 120.75777 31595 ft 466 kts 321°
2026-05-04 19:28 32.14327 120.73339 31617 ft 456 kts 304°
2026-05-04 19:29 32.16043 120.70233 31760 ft 450 kts 292°
2026-05-04 19:29 32.17199 120.66837 32018 ft 444 kts 283°
2026-05-04 19:29 32.17705 120.63334 32126 ft 440 kts 273°
2026-05-04 19:30 32.18194 120.56161 32140 ft 445 kts 273°
2026-05-04 19:30 32.18737 120.48822 32145 ft 451 kts 274°
2026-05-04 19:31 32.19338 120.41411 32140 ft 456 kts 274°
2026-05-04 19:31 32.19953 120.33920 32140 ft 460 kts 274°
2026-05-04 19:32 32.20561 120.26420 32138 ft 463 kts 274°
2026-05-04 19:32 32.21182 120.18840 32129 ft 465 kts 274°
2026-05-04 19:33 32.21804 120.11239 32132 ft 465 kts 274°
2026-05-04 19:33 32.22416 120.03686 32123 ft 465 kts 274°
2026-05-04 19:34 32.23025 119.96097 32121 ft 464 kts 274°
2026-05-04 19:34 32.23629 119.88514 32129 ft 463 kts 274°
2026-05-04 19:35 32.24379 119.80972 32115 ft 462 kts 284°
2026-05-04 19:35 32.25604 119.77448 32127 ft 467 kts 296°
2026-05-04 19:35 32.27395 119.74286 32125 ft 473 kts 306°
2026-05-04 19:35 32.29736 119.71533 32119 ft 479 kts 319°
2026-05-04 19:36 32.32468 119.69256 32133 ft 482 kts 321°
2026-05-04 19:36 32.38017 119.64735 32133 ft 486 kts 321°
2026-05-04 19:37 32.43531 119.60066 32119 ft 489 kts 320°
2026-05-04 19:37 32.49015 119.55356 32121 ft 491 kts 320°
2026-05-04 19:38 32.54540 119.50582 32121 ft 492 kts 320°
2026-05-04 19:38 32.60075 119.45790 32110 ft 493 kts 320°
2026-05-04 19:39 32.65609 119.40995 32111 ft 492 kts 321°
2026-05-04 19:39 32.71130 119.36204 32113 ft 491 kts 321°
2026-05-04 19:40 32.76601 119.31449 32106 ft 490 kts 321°
2026-05-04 19:40 32.82097 119.26665 32112 ft 489 kts 321°
2026-05-04 19:41 32.87583 119.21881 32108 ft 489 kts 321°
2026-05-04 19:41 32.93068 119.17092 32111 ft 489 kts 321°
2026-05-04 19:42 32.98526 119.12348 32109 ft 489 kts 321°
2026-05-04 19:42 33.04039 119.07590 32106 ft 489 kts 321°
2026-05-04 19:43 33.09547 119.02823 32103 ft 489 kts 321°
2026-05-04 19:43 33.15053 118.98042 32099 ft 490 kts 321°
2026-05-04 19:44 33.20522 118.93288 32100 ft 490 kts 321°
2026-05-04 19:44 33.26037 118.88500 32099 ft 490 kts 321°
2026-05-04 19:45 33.31546 118.83715 32102 ft 490 kts 322°
2026-05-04 19:45 33.37076 118.78937 32096 ft 490 kts 322°
2026-05-04 19:46 33.42562 118.74192 32097 ft 490 kts 322°
2026-05-04 19:46 33.48019 118.69460 32096 ft 490 kts 322°
2026-05-04 19:47 33.53538 118.64682 32097 ft 490 kts 322°
2026-05-04 19:47 33.59062 118.59896 32092 ft 490 kts 322°
2026-05-04 19:48 33.64539 118.55141 32092 ft 489 kts 322°
2026-05-04 19:48 33.70046 118.50351 32091 ft 489 kts 322°
2026-05-04 19:49 33.75553 118.45553 32089 ft 488 kts 322°
2026-05-04 19:49 33.81047 118.40758 32091 ft 488 kts 322°
2026-05-04 19:50 33.86498 118.35991 32086 ft 487 kts 322°
2026-05-04 19:50 33.91980 118.31193 32088 ft 487 kts 322°
2026-05-04 19:51 33.97452 118.26395 32087 ft 486 kts 322°
2026-05-04 19:51 34.02005 118.22420 32087 ft 486 kts 322°
2026-05-04 19:52 34.08371 118.16867 32085 ft 485 kts 322°
2026-05-04 19:52 34.13829 118.12085 32083 ft 485 kts 322°
2026-05-04 19:53 34.19281 118.07297 32082 ft 484 kts 322°
2026-05-04 19:53 34.23813 118.03337 32080 ft 484 kts 324°
2026-05-04 19:54 34.29733 117.99439 32089 ft 486 kts 334°
2026-05-04 19:54 34.37182 117.96332 32093 ft 488 kts 341°
2026-05-04 19:55 34.42614 117.94461 32087 ft 488 kts 342°
2026-05-04 19:55 34.49145 117.92189 32084 ft 488 kts 341°
2026-05-04 19:56 34.55661 117.89871 32083 ft 488 kts 341°
2026-05-04 19:56 34.62170 117.87536 32088 ft 487 kts 341°
2026-05-04 19:57 34.68668 117.85203 32088 ft 487 kts 341°
2026-05-04 19:57 34.75124 117.82884 32090 ft 487 kts 341°
2026-05-04 19:58 34.81618 117.80547 32088 ft 487 kts 341°
2026-05-04 19:58 34.88116 117.78224 32092 ft 487 kts 341°
2026-05-04 19:59 34.94568 117.75876 32093 ft 487 kts 341°
2026-05-04 19:59 35.01059 117.73505 32089 ft 487 kts 341°